Location: Derby
(52.9213°N, 1.4761°W)
Time: 01:26:54
(UTC+01:00)

A-11 Canister half - Pass Details

Date: 19 May 2025
Orbit: 1524 x 1684 km, 47.3° (Epoch: 12 June)

Event Time Altitude Azimuth Distance (km) Brightness Sun altitude
Rises 22:12:21 0° 254° (WSW) 4,725 11.9 -8.3°
Reaches altitude 10° 22:15:24 10° 251° (WSW) 3,760 11.3 -8.6°
Maximum altitude 22:24:47 63° 174° (S) 1,763 9.1 -9.5°
Drops below altitude 10° 22:34:29 10° 96° (E) 3,888 10.7 -10.4°
Sets 22:37:42 0° 94° (E) 4,893 11.3 -10.7°
